Weather History for PHHI - December, 2013

Change the Weather History Date:

Sunday, December 15, 2013

  Actual Average Record
Temperature  
Mean Temperature 68 °F -  
Max Temperature 74 °F 74 °F 80 °F (2004)
Min Temperature 62 °F 63 °F 59 °F (2005)
Cooling Degree Days 3    
Growing Degree Days 18 (Base 50)    
Moisture  
Dew Point 64 °F    
Average Humidity 93    
Maximum Humidity 100    
Minimum Humidity 65    
Precipitation  
Precipitation 1.73 in - - ()
Sea Level Pressure  
Sea Level Pressure 29.95 in    
Wind  
Wind Speed 3 mph (NNW)    
Max Wind Speed 14 mph    
Max Gust Speed 21 mph    
Visibility 7 miles    
Events Rain , Thunderstorm    
Averages and records for this station are not official NWS values.
T = Trace of Precipitation, MM = Missing Value Source: NWS Daily Summary

Daily Weather History Graph

Daily Weather History Graph

Search for Another Location

Airport or City:

Trip Planner

Search our weather history database for the weather conditions in past years. The results will help you decide how hot, cold, wet, or windy it might be!

Date:

Astronomy

Dec. 15, 2013 Rise Set
Actual Time 7:02 AM HST 5:52 PM HST
Civil Twilight 6:38 AM HST 6:16 PM HST
Nautical Twilight 6:10 AM HST 6:44 PM HST
Astronomical Twilight 5:43 AM HST 7:12 PM HST
Moon 4:58 PM HST (12/15) 5:37 AM HST (12/15)
Length of Visible Light 11h 38m
Length of Day
10h 50m
Waxing Gibbous, 98% of the Moon is Illuminated
Dec 15
Waxing Gibbous
Dec 16
Full
Dec 25
Last Quarter
Jan 1
New
Jan 7
First Quarter

Hourly Weather History & Observations

Time (HST) Temp. Dew Point Humidity Pressure Visibility Wind Dir Wind Speed Gust Speed Precip Events Conditions
12:03 AM 66.2 °F 64.4 °F 94% 29.96 in 10.0 mi NNE 2.3 mph - N/A   Mostly Cloudy
12:08 AM 66.2 °F 64.4 °F 94% 29.96 in 10.0 mi NNE 2.3 mph - N/A   Mostly Cloudy
12:58 AM 64.2 °F 62.2 °F 93% 29.93 in 10.0 mi Variable 1.2 mph - N/A   Partly Cloudy
1:58 AM 63.0 °F 61.2 °F 94% 29.89 in 10.0 mi West 2.3 mph - N/A   Clear
2:23 AM 62.6 °F 62.6 °F 100% 29.92 in 10.0 mi WNW 3.5 mph - N/A   Mostly Cloudy
2:33 AM 64.4 °F 62.6 °F 94% 29.91 in 10.0 mi NNW 1.2 mph - N/A   Scattered Clouds
2:58 AM 64.9 °F 62.6 °F 92% 29.89 in 10.0 mi NNE 1.2 mph - N/A   Clear
3:58 AM 62.4 °F 60.8 °F 94% 29.88 in 10.0 mi West 3.5 mph - N/A   Partly Cloudy
4:18 AM 62.6 °F 60.8 °F 94% 29.90 in 10.0 mi West 2.3 mph - N/A   Mostly Cloudy
4:43 AM 64.4 °F 62.6 °F 94% 29.90 in 10.0 mi Calm Calm - N/A   Mostly Cloudy
4:53 AM 64.4 °F 62.6 °F 94% 29.90 in 10.0 mi Calm Calm - N/A   Mostly Cloudy
4:58 AM 64.2 °F 62.4 °F 94% 29.88 in 10.0 mi NE 2.3 mph - N/A   Mostly Cloudy
5:03 AM 64.4 °F 62.6 °F 94% 29.90 in 10.0 mi ENE 3.5 mph - N/A   Mostly Cloudy
5:58 AM 64.8 °F 62.6 °F 93% 29.89 in 10.0 mi Calm Calm - N/A   Overcast
6:58 AM 66.0 °F 64.2 °F 94% 29.91 in 10.0 mi North 2.3 mph - N/A   Mostly Cloudy
7:52 AM 68.0 °F 66.2 °F 94% 29.94 in 10.0 mi WNW 2.3 mph - N/A Rain Light Rain
7:58 AM 67.6 °F 65.7 °F 93% 29.93 in 8.0 mi NW 3.5 mph - 0.00 in Rain Light Rain
8:03 AM 68.0 °F 66.2 °F 94% 29.95 in 6.0 mi West 4.6 mph - N/A Rain Light Rain
8:13 AM 68.0 °F 66.2 °F 94% 29.96 in 2.0 mi SW 4.6 mph - N/A Rain Heavy Rain
8:18 AM 68.0 °F 66.2 °F 94% 29.97 in 1.2 mi South 4.6 mph - N/A Rain Heavy Rain
8:28 AM 68.0 °F 66.2 °F 94% 29.97 in 2.5 mi South 2.3 mph - N/A Rain Light Rain
8:33 AM 68.0 °F 66.2 °F 94% 29.98 in 3.0 mi Variable 2.3 mph - N/A   Drizzle
8:43 AM 68.0 °F 66.2 °F 94% 29.98 in 2.5 mi Variable 1.2 mph - N/A Rain Light Rain
8:58 AM 67.6 °F 66.0 °F 95% 29.97 in 1.8 mi SE 3.5 mph - 0.25 in Rain , Thunderstorm Rain
9:13 AM 68.0 °F 66.2 °F 94% 29.99 in 1.5 mi ENE 6.9 mph - N/A Rain , Thunderstorm Heavy Thunderstorms and Rain
9:18 AM 68.0 °F 66.2 °F 94% 30.00 in 2.5 mi ENE 4.6 mph - N/A Rain , Thunderstorm Heavy Thunderstorms and Rain
9:23 AM 68.0 °F 66.2 °F 94% 30.00 in 3.0 mi ENE 5.8 mph - N/A Rain , Thunderstorm Thunderstorms and Rain
9:37 AM 68.0 °F 66.2 °F 94% 30.00 in 7.0 mi East 3.5 mph - N/A Rain Light Rain
9:53 AM 68.0 °F 66.2 °F 94% 30.00 in 5.0 mi ENE 2.3 mph - N/A Rain , Thunderstorm Thunderstorms and Rain
9:58 AM 67.3 °F 65.5 °F 94% 29.99 in 4.0 mi Calm Calm - 0.36 in Rain , Thunderstorm Light Thunderstorms and Rain
10:03 AM 68.0 °F 66.2 °F 94% 30.00 in 2.0 mi NNW 2.3 mph - N/A Rain , Thunderstorm Heavy Thunderstorms and Rain
10:08 AM 68.0 °F 66.2 °F 94% 30.00 in 2.5 mi WNW 3.5 mph - N/A Rain , Thunderstorm Thunderstorms and Rain
10:18 AM 68.0 °F 66.2 °F 94% 30.00 in 0.8 mi West 2.3 mph - N/A Rain , Thunderstorm Heavy Thunderstorms and Rain
10:33 AM 66.2 °F 64.4 °F 94% 30.02 in 0.8 mi NNW 11.5 mph - N/A Rain , Thunderstorm Heavy Thunderstorms and Rain
10:38 AM 66.2 °F 64.4 °F 94% 30.01 in 1.5 mi NNW 13.8 mph 20.7 mph N/A Rain , Thunderstorm Heavy Thunderstorms and Rain
10:53 AM 64.4 °F 62.6 °F 94% 30.02 in 2.0 mi WNW 10.4 mph - N/A Rain , Thunderstorm Heavy Thunderstorms and Rain
10:58 AM 64.0 °F 62.2 °F 94% 30.01 in 1.8 mi NNW 10.4 mph - 0.81 in Rain , Thunderstorm Heavy Thunderstorms and Rain
11:06 AM 64.4 °F 62.6 °F 94% 30.02 in 2.0 mi NNW 10.4 mph - N/A Rain Heavy Rain
11:16 AM 64.4 °F 62.6 °F 94% 30.03 in 4.0 mi North 9.2 mph - N/A Rain Heavy Rain
11:19 AM 64.4 °F 62.6 °F 94% 30.03 in 5.0 mi North 8.1 mph - N/A Rain , Thunderstorm Thunderstorms and Rain
11:37 AM 64.4 °F 62.6 °F 94% 30.03 in 8.0 mi NNW 5.8 mph - N/A Rain Rain
11:47 AM 64.4 °F 62.6 °F 94% 30.02 in 7.0 mi North 5.8 mph - N/A Rain Heavy Rain
11:52 AM 64.4 °F 62.6 °F 94% 30.02 in 6.0 mi North 6.9 mph - N/A Rain Heavy Rain
11:57 AM 64.4 °F 62.6 °F 94% 30.01 in 6.0 mi North 8.1 mph - N/A Rain Heavy Rain
11:58 AM 64.9 °F 63.1 °F 94% 30.00 in 6.0 mi North 8.1 mph - 0.25 in Rain Heavy Rain
12:03 PM 64.4 °F 62.6 °F 94% 30.00 in 6.0 mi NNE 6.9 mph - N/A Rain Heavy Rain
12:58 PM 66.2 °F 64.4 °F 94% 29.90 in 10.0 mi WSW 4.6 mph - 0.06 in Rain Light Rain
1:10 PM 66.2 °F 64.4 °F 94% 29.91 in 10.0 mi SW 4.6 mph - N/A   Clear
1:58 PM 67.8 °F 65.3 °F 92% 29.86 in 10.0 mi SSE 4.6 mph - 0.00 in   Clear
2:58 PM 68.4 °F 65.1 °F 89% 29.83 in 10.0 mi SSW 4.6 mph - N/A   Mostly Cloudy
3:58 PM 72.7 °F 64.9 °F 77% 29.84 in 10.0 mi Variable 3.5 mph - N/A   Scattered Clouds
4:58 PM 74.1 °F 61.7 °F 65% 29.85 in 10.0 mi WSW 2.3 mph - N/A   Clear
5:58 PM 69.1 °F 61.3 °F 76% 29.87 in 10.0 mi Variable 2.3 mph - N/A   Clear
6:58 PM 67.1 °F 63.9 °F 89% 29.89 in 10.0 mi Calm Calm - N/A   Clear
7:58 PM 67.1 °F 64.2 °F 90% 29.90 in 10.0 mi ESE 2.3 mph - N/A   Clear
8:58 PM 64.2 °F 61.7 °F 91% 29.93 in 10.0 mi NNW 3.5 mph - N/A   Clear
9:58 PM 63.7 °F 62.1 °F 94% 29.95 in 10.0 mi NNW 1.2 mph - N/A   Mostly Cloudy
10:58 PM 64.2 °F 62.6 °F 94% 29.95 in 10.0 mi NNW 1.2 mph - N/A   Overcast
11:58 PM 64.9 °F 63.1 °F 94% 29.93 in 10.0 mi NE 4.6 mph - N/A   Overcast